Back to catalog

STARLINK-33781

AliveCommunicationsVLEO
NORAD 63826·PAYLOAD·🇺🇸 United States

Launched May 4, 2025 from Cape Canaveral Space Force Station

Loading…

Next Passes (next 24 hours)

TLE

FreshSource: CelesTrak SupGP

Epoch: Sep 14, 2026, 22:57 UTC

1 63826C 25092Y   26257.95673611 -.00029883  00000+0 -10823-2 0  2577
2 63826  43.0011 183.9692 0001324 266.7826 215.9634 15.27596026    15

Track STARLINK-33781 in real time with AllMySat

Download on the App Store